Time,TemperatureF,DewpointF,PressureIn,WindDirection,WindDirectionDegrees,WindSpeedMPH,WindSpeedGustMPH,Humidity,HourlyPrecipIn,Conditions,Clouds,dailyrainin,SolarRadiationWatts/m^2,SoftwareType,DateUTC
2013-03-11 00:00:00,25.6,12.1,30.00,East,100,6.0,6.0,56,0.00,,,0.12,0,Wunderground v.1.15,2013-03-11 06:00:00,
2013-03-11 00:06:00,25.6,12.5,30.00,SE,140,4.0,31.0,57,0.00,,,0.12,0,Wunderground v.1.15,2013-03-11 06:06:00,
2013-03-11 00:15:00,25.6,12.1,30.00,SSW,210,7.0,9.0,56,0.00,,,0.12,0,Wunderground v.1.15,2013-03-11 06:15:00,
2013-03-11 00:25:00,25.8,12.2,29.99,West,261,9.0,25.0,56,0.00,,,0.12,0,Wunderground v.1.15,2013-03-11 06:25:00,
2013-03-11 00:35:00,26.3,13.1,29.98,WSW,247,12.0,24.0,57,0.00,,,0.12,0,Wunderground v.1.15,2013-03-11 06:35:00,
2013-03-11 00:45:00,26.6,13.0,29.98,NW,315,11.0,35.0,56,0.00,,,0.12,0,Wunderground v.1.15,2013-03-11 06:45:00,
2013-03-11 00:50:00,26.6,13.4,29.97,WNW,288,12.0,12.0,57,0.00,,,0.12,0,Wunderground v.1.15,2013-03-11 06:50:00,
2013-03-11 01:00:00,26.7,13.1,29.97,NNW,344,12.0,35.0,56,0.00,,,0.12,0,Wunderground v.1.15,2013-03-11 07:00:00,
2013-03-11 01:06:00,26.7,13.1,29.98,WSW,246,13.0,35.0,56,0.00,,,0.12,0,Wunderground v.1.15,2013-03-11 07:06:00,
2013-03-11 01:15:00,26.7,13.1,29.98,West,280,13.0,34.0,56,0.00,,,0.00,0,Wunderground v.1.15,2013-03-11 07:15:00,
2013-03-11 01:20:00,26.7,13.1,29.98,WNW,301,13.0,34.0,56,0.00,,,0.00,0,Wunderground v.1.15,2013-03-11 07:20:00,
2013-03-11 01:30:00,26.7,13.1,29.98,SW,219,13.0,34.0,56,0.00,,,0.00,0,Wunderground v.1.15,2013-03-11 07:30:00,
2013-03-11 01:35:00,26.7,13.1,29.98,WSW,243,13.0,34.0,56,0.00,,,0.00,0,Wunderground v.1.15,2013-03-11 07:35:00,
2013-03-11 01:45:00,26.7,13.1,29.98,SW,217,12.0,38.0,56,0.00,,,0.00,0,Wunderground v.1.15,2013-03-11 07:45:00,
2013-03-11 01:50:00,26.7,13.1,29.98,West,275,13.0,13.0,56,0.00,,,0.00,0,Wunderground v.1.15,2013-03-11 07:50:00,
2013-03-11 02:00:00,26.7,13.1,29.98,WNW,302,11.0,11.0,56,0.00,,,0.00,0,Wunderground v.1.15,2013-03-11 08:00:00,
2013-03-11 02:05:00,26.7,12.7,29.99,ESE,113,9.0,38.0,55,0.00,,,0.00,0,Wunderground v.1.15,2013-03-11 08:05:00,
2013-03-11 02:15:00,26.7,13.1,29.99,SSW,208,7.0,30.0,56,0.00,,,0.00,0,Wunderground v.1.15,2013-03-11 08:15:00,
2013-03-11 02:20:00,26.6,13.0,29.98,SW,229,7.0,30.0,56,0.00,,,0.00,0,Wunderground v.1.15,2013-03-11 08:20:00,
2013-03-11 02:25:00,26.4,12.8,29.98,SSW,205,10.0,30.0,56,0.00,,,0.00,0,Wunderground v.1.15,2013-03-11 08:25:00,
2013-03-11 02:35:00,26.3,12.3,29.97,SE,137,8.0,30.0,55,0.00,,,0.00,0,Wunderground v.1.15,2013-03-11 08:35:00,
2013-03-11 02:45:00,26.3,12.3,29.97,South,186,5.0,28.0,55,0.00,,,0.00,0,Wunderground v.1.15,2013-03-11 08:45:00,
2013-03-11 02:55:00,26.0,12.0,29.95,South,178,7.0,28.0,55,0.00,,,0.00,0,Wunderground v.1.15,2013-03-11 08:55:00,
2013-03-11 03:00:00,26.0,12.0,29.95,SW,215,7.0,7.0,55,0.00,,,0.00,0,Wunderground v.1.15,2013-03-11 09:00:00,
2013-03-11 03:05:00,25.8,11.4,29.92,WSW,247,6.0,28.0,54,0.00,,,0.00,0,Wunderground v.1.15,2013-03-11 09:05:00,
2013-03-11 03:15:00,25.8,11.8,29.92,WNW,301,11.0,20.0,55,0.00,,,0.00,0,Wunderground v.1.15,2013-03-11 09:15:00,
2013-03-11 03:20:00,25.8,11.8,29.89,NW,320,12.0,12.0,55,0.00,,,0.00,0,Wunderground v.1.15,2013-03-11 09:20:00,
2013-03-11 03:30:00,26.0,11.6,29.89,South,188,12.0,12.0,54,0.00,,,0.00,0,Wunderground v.1.15,2013-03-11 09:30:00,
2013-03-11 03:40:00,26.0,11.6,29.86,NW,313,13.0,44.0,54,0.00,,,0.00,0,Wunderground v.1.15,2013-03-11 09:40:00,
2013-03-11 03:45:00,26.0,11.6,29.86,NW,316,15.0,44.0,54,0.00,,,0.00,0,Wunderground v.1.15,2013-03-11 09:45:00,
2013-03-11 03:55:00,26.0,11.6,29.85,WNW,287,16.0,26.0,54,0.00,,,0.00,0,Wunderground v.1.15,2013-03-11 09:55:00,
2013-03-11 04:06:00,26.0,12.4,29.83,West,261,17.0,28.0,56,0.00,,,0.00,0,Wunderground v.1.15,2013-03-11 10:06:00,
2013-03-11 04:15:00,26.0,12.8,29.83,West,264,19.0,43.0,57,0.00,,,0.00,0,Wunderground v.1.15,2013-03-11 10:15:00,
2013-03-11 04:25:00,25.8,11.8,29.83,NNW,337,21.0,26.0,55,0.00,,,0.00,0,Wunderground v.1.15,2013-03-11 10:25:00,
2013-03-11 04:30:00,25.8,11.8,29.83,SSW,210,20.0,43.0,55,0.00,,,0.00,0,Wunderground v.1.15,2013-03-11 10:30:00,
2013-03-11 04:40:00,25.8,11.8,29.83,WNW,299,20.0,43.0,55,0.00,,,0.00,0,Wunderground v.1.15,2013-03-11 10:40:00,
2013-03-11 04:50:00,25.8,11.4,29.83,NNW,330,21.0,21.0,54,0.00,,,0.00,0,Wunderground v.1.15,2013-03-11 10:50:00,
2013-03-11 04:55:00,25.8,11.4,29.83,NW,313,21.0,43.0,54,0.00,,,0.00,0,Wunderground v.1.15,2013-03-11 10:55:00,
2013-03-11 05:06:00,25.8,11.4,29.85,WNW,285,24.0,43.0,54,0.00,,,0.00,0,Wunderground v.1.15,2013-03-11 11:06:00,
2013-03-11 05:15:00,25.8,11.0,29.85,West,281,24.0,46.0,53,0.00,,,0.00,0,Wunderground v.1.15,2013-03-11 11:15:00,
2013-03-11 05:25:00,26.1,9.5,29.87,WSW,253,22.0,46.0,49,0.00,,,0.00,0,Wunderground v.1.15,2013-03-11 11:25:00,
2013-03-11 05:35:00,26.3,9.2,29.94,NNW,347,22.0,46.0,48,0.00,,,0.00,0,Wunderground v.1.15,2013-03-11 11:35:00,
2013-03-11 05:40:00,26.4,8.9,29.94,North,359,19.0,19.0,47,0.00,,,0.00,0,Wunderground v.1.15,2013-03-11 11:40:00,
2013-03-11 05:50:00,26.4,7.4,29.99,NNW,329,14.0,14.0,44,0.00,,,0.00,0,Wunderground v.1.15,2013-03-11 11:50:00,
2013-03-11 06:00:00,26.4,8.4,29.99,SSW,192,8.0,8.0,46,0.00,,,0.00,0,Wunderground v.1.15,2013-03-11 12:00:00,
2013-03-11 06:06:00,26.4,7.9,29.98,SW,230,9.0,15.0,45,0.00,,,0.00,0,Wunderground v.1.15,2013-03-11 12:06:00,
2013-03-11 06:15:00,26.3,7.8,29.98,SW,236,9.0,34.0,45,0.00,,,0.00,0,Wunderground v.1.15,2013-03-11 12:15:00,
2013-03-11 06:25:00,26.1,7.6,30.01,SSE,151,7.0,13.0,45,0.00,,,0.00,0,Wunderground v.1.15,2013-03-11 12:25:00,
2013-03-11 06:35:00,26.1,7.6,30.01,SSE,167,8.0,34.0,45,0.00,,,0.00,0,Wunderground v.1.15,2013-03-11 12:35:00,
2013-03-11 06:40:00,26.1,8.1,30.01,WNW,282,9.0,9.0,46,0.00,,,0.00,0,Wunderground v.1.15,2013-03-11 12:40:00,
2013-03-11 06:50:00,26.3,8.3,29.99,West,263,11.0,21.0,46,0.00,,,0.00,0,Wunderground v.1.15,2013-03-11 12:50:00,
2013-03-11 07:00:00,26.3,7.8,29.99,NNW,329,13.0,13.0,45,0.00,,,0.00,0,Wunderground v.1.15,2013-03-11 13:00:00,
2013-03-11 07:05:00,26.1,7.6,29.98,SW,215,12.0,15.0,45,0.00,,,0.00,0,Wunderground v.1.15,2013-03-11 13:05:00,
2013-03-11 07:15:00,26.1,7.6,29.98,WSW,241,12.0,41.0,45,0.00,,,0.00,0,Wunderground v.1.15,2013-03-11 13:15:00,
2013-03-11 07:20:00,26.1,7.6,29.97,WSW,251,12.0,41.0,45,0.00,,,0.00,0,Wunderground v.1.15,2013-03-11 13:20:00,
2013-03-11 07:30:00,26.1,8.1,29.97,West,275,17.0,41.0,46,0.00,,,0.00,0,Wunderground v.1.15,2013-03-11 13:30:00,
2013-03-11 07:40:00,26.1,8.1,29.96,WNW,282,17.0,17.0,46,0.00,,,0.00,0,Wunderground v.1.15,2013-03-11 13:40:00,
2013-03-11 07:45:00,26.0,8.5,29.96,SW,226,17.0,39.0,47,0.00,,,0.00,0,Wunderground v.1.15,2013-03-11 13:45:00,
2013-03-11 07:55:00,26.0,9.9,29.95,NNW,339,19.0,39.0,50,0.00,,,0.00,7,Wunderground v.1.15,2013-03-11 13:55:00,
2013-03-11 08:05:00,25.8,10.1,29.95,WSW,237,20.0,23.0,51,0.00,,,0.00,7,Wunderground v.1.15,2013-03-11 14:05:00,
2013-03-11 08:15:00,25.8,10.6,29.95,West,263,20.0,49.0,52,0.00,,,0.00,18,Wunderground v.1.15,2013-03-11 14:15:00,
2013-03-11 08:25:00,26.0,10.3,29.93,WSW,243,20.0,49.0,51,0.00,,,0.00,28,Wunderground v.1.15,2013-03-11 14:25:00,
2013-03-11 08:30:00,26.1,10.9,29.93,NNW,328,21.0,49.0,52,0.00,,,0.00,37,Wunderground v.1.15,2013-03-11 14:30:00,
2013-03-11 08:40:00,26.3,11.5,29.93,North,357,21.0,50.0,53,0.00,,,0.00,33,Wunderground v.1.15,2013-03-11 14:40:00,
2013-03-11 08:50:00,26.6,10.4,29.95,NNE,30,20.0,20.0,50,0.00,,,0.00,35,Wunderground v.1.15,2013-03-11 14:50:00,
2013-03-11 09:00:00,27.2,10.5,29.95,NW,319,15.0,50.0,49,0.00,,,0.00,30,Wunderground v.1.15,2013-03-11 15:00:00,
2013-03-11 09:05:00,27.3,10.2,29.95,WSW,247,16.0,50.0,48,0.00,,,0.00,30,Wunderground v.1.15,2013-03-11 15:05:00,
2013-03-11 09:15:00,27.6,10.4,29.95,NW,323,18.0,18.0,48,0.00,,,0.00,53,Wunderground v.1.15,2013-03-11 15:15:00,
2013-03-11 09:20:00,27.8,9.7,29.95,NW,323,18.0,50.0,46,0.00,,,0.00,408,Wunderground v.1.15,2013-03-11 15:20:00,
2013-03-11 09:30:00,27.6,10.0,29.95,NNW,346,19.0,19.0,47,0.00,,,0.00,236,Wunderground v.1.15,2013-03-11 15:30:00,
2013-03-11 09:35:00,27.5,9.4,29.94,NW,320,19.0,23.0,46,0.00,,,0.00,246,Wunderground v.1.15,2013-03-11 15:35:00,
2013-03-11 09:45:00,27.9,9.8,29.94,NNW,335,17.0,44.0,46,0.00,,,0.00,141,Wunderground v.1.15,2013-03-11 15:45:00,
2013-03-11 09:55:00,28.5,10.3,29.96,WNW,302,14.0,20.0,46,0.00,,,0.00,116,Wunderground v.1.15,2013-03-11 15:55:00,
2013-03-11 10:05:00,29.1,11.4,29.94,NW,305,15.0,44.0,47,0.00,,,0.00,269,Wunderground v.1.15,2013-03-11 16:05:00,
2013-03-11 10:15:00,28.8,12.0,29.94,WNW,289,17.0,17.0,49,0.00,,,0.00,375,Wunderground v.1.15,2013-03-11 16:15:00,
2013-03-11 10:25:00,28.1,12.7,29.94,West,278,19.0,43.0,52,0.00,,,0.00,190,Wunderground v.1.15,2013-03-11 16:25:00,
2013-03-11 10:40:00,27.6,13.1,29.96,West,261,18.0,18.0,54,0.00,,,0.00,106,Wunderground v.1.15,2013-03-11 16:40:00,
2013-03-11 10:50:00,28.7,12.8,29.93,WNW,302,18.0,18.0,51,0.00,,,0.00,76,Wunderground v.1.15,2013-03-11 16:50:00,
2013-03-11 10:55:00,29.1,13.2,29.93,NW,312,19.0,19.0,51,0.00,,,0.00,76,Wunderground v.1.15,2013-03-11 16:55:00,
2013-03-11 11:05:00,29.5,13.1,29.93,NW,309,19.0,21.0,50,0.00,,,0.00,415,Wunderground v.1.15,2013-03-11 17:05:00,
2013-03-11 11:15:00,30.3,13.4,29.93,NW,316,17.0,43.0,49,0.00,,,0.00,227,Wunderground v.1.15,2013-03-11 17:15:00,
2013-03-11 11:25:00,30.0,13.6,29.90,NW,315,17.0,43.0,50,0.00,,,0.00,250,Wunderground v.1.15,2013-03-11 17:25:00,
2013-03-11 11:35:00,30.3,13.4,29.90,WNW,302,21.0,43.0,49,0.00,,,0.00,378,Wunderground v.1.15,2013-03-11 17:35:00,
2013-03-11 11:40:00,30.6,13.7,29.90,NW,305,22.0,22.0,49,0.00,,,0.00,375,Wunderground v.1.15,2013-03-11 17:40:00,
2013-03-11 11:50:00,31.0,14.5,29.90,NNE,16,19.0,46.0,50,0.00,,,0.00,516,Wunderground v.1.15,2013-03-11 17:50:00,
2013-03-11 12:00:00,31.9,14.4,29.90,West,275,19.0,46.0,48,0.00,,,0.00,530,Wunderground v.1.15,2013-03-11 18:00:00,
2013-03-11 12:06:00,32.2,14.7,29.90,WSW,248,20.0,46.0,48,0.00,,,0.00,667,Wunderground v.1.15,2013-03-11 18:06:00,
2013-03-11 12:15:00,32.9,15.8,29.90,North,353,20.0,49.0,49,0.00,,,0.00,160,Wunderground v.1.15,2013-03-11 18:15:00,
2013-03-11 12:20:00,33.2,16.1,29.88,WSW,248,19.0,19.0,49,0.00,,,0.00,113,Wunderground v.1.15,2013-03-11 18:20:00,
2013-03-11 12:25:00,33.5,16.4,29.88,West,277,18.0,49.0,49,0.00,,,0.00,128,Wunderground v.1.15,2013-03-11 18:25:00,
2013-03-11 12:35:00,33.8,16.6,29.88,NW,308,18.0,49.0,49,0.00,,,0.00,158,Wunderground v.1.15,2013-03-11 18:35:00,
2013-03-11 12:45:00,33.7,16.5,29.88,NNW,336,19.0,46.0,49,0.00,,,0.00,116,Wunderground v.1.15,2013-03-11 18:45:00,
2013-03-11 12:55:00,34.1,17.4,29.89,West,265,16.0,46.0,50,0.00,,,0.00,199,Wunderground v.1.15,2013-03-11 18:55:00,
2013-03-11 13:05:00,34.0,16.8,29.89,North,359,15.0,46.0,49,0.00,,,0.00,97,Wunderground v.1.15,2013-03-11 19:05:00,
2013-03-11 13:15:00,33.8,17.1,29.89,North,359,18.0,18.0,50,0.00,,,0.00,172,Wunderground v.1.15,2013-03-11 19:15:00,
2013-03-11 13:20:00,34.3,17.6,29.87,WSW,247,17.0,46.0,50,0.00,,,0.00,113,Wunderground v.1.15,2013-03-11 19:20:00,
2013-03-11 13:30:00,34.3,18.0,29.87,WNW,296,17.0,17.0,51,0.00,,,0.00,143,Wunderground v.1.15,2013-03-11 19:30:00,
2013-03-11 13:40:00,34.7,19.3,29.89,NW,305,14.0,14.0,53,0.00,,,0.00,181,Wunderground v.1.15,2013-03-11 19:40:00,
2013-03-11 13:45:00,34.6,19.2,29.89,West,268,13.0,25.0,53,0.00,,,0.00,183,Wunderground v.1.15,2013-03-11 19:45:00,
2013-03-11 13:55:00,34.3,18.5,29.87,North,0,16.0,17.0,52,0.00,,,0.00,158,Wunderground v.1.15,2013-03-11 19:55:00,
2013-03-11 14:06:00,34.7,18.9,29.84,NNW,335,15.0,28.0,52,0.00,,,0.00,116,Wunderground v.1.15,2013-03-11 20:06:00,
2013-03-11 14:15:00,34.1,18.7,29.84,WNW,302,17.0,37.0,53,0.00,,,0.00,121,Wunderground v.1.15,2013-03-11 20:15:00,
2013-03-11 14:25:00,34.3,18.0,29.84,NW,322,17.0,38.0,51,0.00,,,0.00,134,Wunderground v.1.15,2013-03-11 20:25:00,
2013-03-11 14:30:00,34.1,17.8,29.84,NNW,330,19.0,19.0,51,0.00,,,0.00,95,Wunderground v.1.15,2013-03-11 20:30:00,
2013-03-11 14:40:00,34.1,17.8,29.83,NW,305,19.0,42.0,51,0.00,,,0.00,72,Wunderground v.1.15,2013-03-11 20:40:00,
2013-03-11 14:50:00,34.1,18.3,29.83,WNW,287,18.0,42.0,52,0.00,,,0.00,81,Wunderground v.1.15,2013-03-11 20:50:00,
2013-03-11 15:00:00,33.7,20.1,29.83,WNW,285,18.0,18.0,57,0.00,,,0.00,109,Wunderground v.1.15,2013-03-11 21:00:00,
2013-03-11 15:05:00,33.7,19.7,29.83,WNW,288,16.0,24.0,56,0.00,,,0.00,114,Wunderground v.1.15,2013-03-11 21:05:00,
2013-03-11 15:15:00,33.7,19.7,29.83,NW,315,18.0,42.0,56,0.00,,,0.00,341,Wunderground v.1.15,2013-03-11 21:15:00,
2013-03-11 15:20:00,33.5,19.9,29.83,NW,325,18.0,42.0,57,0.00,,,0.00,341,Wunderground v.1.15,2013-03-11 21:20:00,
2013-03-11 15:30:00,33.7,18.8,29.83,WNW,301,20.0,20.0,54,0.00,,,0.00,88,Wunderground v.1.15,2013-03-11 21:30:00,
2013-03-11 15:40:00,33.7,18.4,29.83,NW,326,18.0,38.0,53,0.00,,,0.01,134,Wunderground v.1.15,2013-03-11 21:40:00,
2013-03-11 15:50:00,33.7,18.4,29.83,NNW,328,18.0,38.0,53,0.00,,,0.01,114,Wunderground v.1.15,2013-03-11 21:50:00,
2013-03-11 15:55:00,33.2,20.0,29.83,WNW,287,18.0,38.0,58,0.00,,,0.01,127,Wunderground v.1.15,2013-03-11 21:55:00,
2013-03-11 16:06:00,32.9,18.5,29.85,NW,323,17.0,38.0,55,0.00,,,0.01,58,Wunderground v.1.15,2013-03-11 22:06:00,
2013-03-11 16:15:00,33.4,18.1,29.85,NW,322,19.0,43.0,53,0.00,,,0.01,137,Wunderground v.1.15,2013-03-11 22:15:00,
2013-03-11 16:20:00,33.5,18.2,29.83,NNE,13,20.0,43.0,53,0.00,,,0.01,125,Wunderground v.1.15,2013-03-11 22:20:00,
2013-03-11 16:30:00,34.3,17.6,29.83,WNW,301,16.0,43.0,50,0.00,,,0.01,229,Wunderground v.1.15,2013-03-11 22:30:00,
2013-03-11 16:40:00,33.5,16.8,29.84,WNW,287,17.0,17.0,50,0.00,,,0.01,148,Wunderground v.1.15,2013-03-11 22:40:00,
2013-03-11 16:45:00,33.2,17.5,29.84,West,261,17.0,42.0,52,0.00,,,0.01,62,Wunderground v.1.15,2013-03-11 22:45:00,
2013-03-11 16:55:00,32.8,17.5,29.87,North,7,16.0,16.0,53,0.00,,,0.01,30,Wunderground v.1.15,2013-03-11 22:55:00,
2013-03-11 17:00:00,32.7,17.4,29.87,WNW,302,17.0,42.0,53,0.00,,,0.01,33,Wunderground v.1.15,2013-03-11 23:00:00,
2013-03-11 17:05:00,32.8,16.6,29.87,SW,233,17.0,51.0,51,0.00,,,0.01,25,Wunderground v.1.15,2013-03-11 23:05:00,
2013-03-11 17:15:00,32.8,15.7,29.87,WNW,301,17.0,23.0,49,0.00,,,0.01,28,Wunderground v.1.15,2013-03-11 23:15:00,
2013-03-11 17:25:00,33.1,16.0,29.88,North,349,14.0,51.0,49,0.00,,,0.01,49,Wunderground v.1.15,2013-03-11 23:25:00,
2013-03-11 17:35:00,33.2,16.1,29.90,NW,322,14.0,51.0,49,0.00,,,0.01,37,Wunderground v.1.15,2013-03-11 23:35:00,
2013-03-11 17:45:00,33.2,16.5,29.90,North,350,15.0,37.0,50,0.00,,,0.01,35,Wunderground v.1.15,2013-03-11 23:45:00,
2013-03-11 17:55:00,33.1,17.4,29.91,West,275,14.0,37.0,52,0.00,,,0.01,39,Wunderground v.1.15,2013-03-11 23:55:00,
2013-03-11 18:00:00,32.9,18.1,29.91,NNW,337,13.0,13.0,54,0.00,,,0.01,33,Wunderground v.1.15,2013-03-12 00:00:00,
2013-03-11 18:05:00,32.8,17.5,29.92,West,263,11.0,37.0,53,0.00,,,0.01,46,Wunderground v.1.15,2013-03-12 00:05:00,
2013-03-11 18:15:00,32.5,18.1,29.92,NNW,328,11.0,33.0,55,0.00,,,0.01,21,Wunderground v.1.15,2013-03-12 00:15:00,
2013-03-11 18:20:00,32.4,17.6,29.93,NW,322,10.0,10.0,54,0.00,,,0.02,12,Wunderground v.1.15,2013-03-12 00:20:00,
2013-03-11 18:30:00,32.2,18.2,29.93,NW,313,11.0,33.0,56,0.00,,,0.02,0,Wunderground v.1.15,2013-03-12 00:30:00,
2013-03-11 18:40:00,31.8,18.7,29.94,North,357,10.0,10.0,58,0.00,,,0.02,0,Wunderground v.1.15,2013-03-12 00:40:00,
2013-03-11 18:50:00,31.5,18.0,29.94,NW,309,5.0,42.0,57,0.00,,,0.02,0,Wunderground v.1.15,2013-03-12 00:50:00,
2013-03-11 19:00:00,31.6,16.8,29.94,NNE,20,10.0,10.0,54,0.00,,,0.02,0,Wunderground v.1.15,2013-03-12 01:00:00,
2013-03-11 19:06:00,31.6,18.1,29.95,North,350,9.0,13.0,57,0.00,,,0.02,0,Wunderground v.1.15,2013-03-12 01:06:00,
2013-03-11 19:15:00,28.1,20.9,29.95,ENE,71,5.0,24.0,74,0.00,,,0.02,0,Wunderground v.1.15,2013-03-12 01:15:00,
2013-03-11 19:20:00,27.0,20.7,30.01,ENE,65,3.0,24.0,77,0.00,,,0.02,0,Wunderground v.1.15,2013-03-12 01:20:00,
2013-03-11 19:30:00,26.3,21.3,30.01,ENE,65,1.0,24.0,81,0.00,,,0.02,0,Wunderground v.1.15,2013-03-12 01:30:00,
2013-03-11 19:40:00,26.4,21.1,30.02,NE,47,1.0,1.0,80,0.00,,,0.02,0,Wunderground v.1.15,2013-03-12 01:40:00,
2013-03-11 19:50:00,26.0,21.3,30.02,NE,34,3.0,15.0,82,0.00,,,0.02,0,Wunderground v.1.15,2013-03-12 01:50:00,
2013-03-11 20:00:00,25.8,21.3,30.02,ENE,62,2.0,15.0,83,0.00,,,0.02,0,Wunderground v.1.15,2013-03-12 02:00:00,
2013-03-11 20:06:00,25.7,21.3,30.03,East,95,3.0,15.0,83,0.00,,,0.02,0,Wunderground v.1.15,2013-03-12 02:06:00,
2013-03-11 20:15:00,25.6,21.2,30.03,East,89,1.0,9.0,83,0.00,,,0.02,0,Wunderground v.1.15,2013-03-12 02:15:00,
2013-03-11 20:25:00,25.0,20.8,30.03,East,89,1.0,9.0,84,0.00,,,0.02,0,Wunderground v.1.15,2013-03-12 02:25:00,
2013-03-11 20:30:00,25.0,20.8,30.03,East,88,1.0,9.0,84,0.00,,,0.02,0,Wunderground v.1.15,2013-03-12 02:30:00,
2013-03-11 20:40:00,25.0,20.8,30.04,NNE,31,2.0,2.0,84,0.00,,,0.02,0,Wunderground v.1.15,2013-03-12 02:40:00,
2013-03-11 20:50:00,24.8,20.7,30.04,ENE,73,1.0,1.0,84,0.00,,,0.02,0,Wunderground v.1.15,2013-03-12 02:50:00,
2013-03-11 21:00:00,24.8,20.7,30.04,ENE,61,2.0,6.0,84,0.00,,,0.02,0,Wunderground v.1.15,2013-03-12 03:00:00,
2013-03-11 21:05:00,24.8,20.4,30.05,ESE,109,2.0,6.0,83,0.00,,,0.02,0,Wunderground v.1.15,2013-03-12 03:05:00,
2013-03-11 21:15:00,24.7,20.3,30.05,ESE,121,2.0,4.0,83,0.00,,,0.02,0,Wunderground v.1.15,2013-03-12 03:15:00,
2013-03-11 21:25:00,24.5,19.8,30.05,East,100,1.0,8.0,82,0.00,,,0.02,0,Wunderground v.1.15,2013-03-12 03:25:00,
2013-03-11 21:30:00,24.4,20.0,30.05,ENE,73,2.0,2.0,83,0.00,,,0.02,0,Wunderground v.1.15,2013-03-12 03:30:00,
2013-03-11 21:40:00,24.4,20.0,30.06,SE,131,2.0,8.0,83,0.00,,,0.02,0,Wunderground v.1.15,2013-03-12 03:40:00,
2013-03-11 21:45:00,24.2,19.8,30.06,SE,127,3.0,8.0,83,0.00,,,0.02,0,Wunderground v.1.15,2013-03-12 03:45:00,
2013-03-11 21:55:00,24.2,19.8,30.06,ESE,112,1.0,8.0,83,0.00,,,0.02,0,Wunderground v.1.15,2013-03-12 03:55:00,
2013-03-11 22:00:00,24.1,19.4,30.06,ENE,58,1.0,1.0,82,0.00,,,0.02,0,Wunderground v.1.15,2013-03-12 04:00:00,
2013-03-11 22:05:00,23.9,19.2,30.07,ESE,102,2.0,8.0,82,0.00,,,0.02,0,Wunderground v.1.15,2013-03-12 04:05:00,
2013-03-11 22:15:00,23.8,19.1,30.07,East,80,1.0,8.0,82,0.00,,,0.02,0,Wunderground v.1.15,2013-03-12 04:15:00,
2013-03-11 22:20:00,23.6,18.9,30.05,East,80,1.0,8.0,82,0.00,,,0.02,0,Wunderground v.1.15,2013-03-12 04:20:00,
2013-03-11 22:25:00,23.6,18.9,30.05,East,79,1.0,8.0,82,0.00,,,0.02,0,Wunderground v.1.15,2013-03-12 04:25:00,
2013-03-11 22:35:00,23.5,18.8,30.07,ENE,69,1.0,8.0,82,0.00,,,0.02,0,Wunderground v.1.15,2013-03-12 04:35:00,
2013-03-11 22:45:00,23.3,18.6,30.07,East,90,2.0,2.0,82,0.00,,,0.02,0,Wunderground v.1.15,2013-03-12 04:45:00,
2013-03-11 22:55:00,23.2,18.8,30.10,East,99,2.0,9.0,83,0.00,,,0.02,0,Wunderground v.1.15,2013-03-12 04:55:00,
2013-03-11 23:05:00,23.2,18.8,30.10,East,99,1.0,4.0,83,0.00,,,0.02,0,Wunderground v.1.15,2013-03-12 05:05:00,
2013-03-11 23:15:00,23.2,19.1,30.10,ENE,78,1.0,7.0,84,0.00,,,0.02,0,Wunderground v.1.15,2013-03-12 05:15:00,
2013-03-11 23:25:00,23.3,19.5,30.07,NE,35,2.0,7.0,85,0.00,,,0.02,0,Wunderground v.1.15,2013-03-12 05:25:00,
2013-03-11 23:35:00,23.2,19.4,30.08,East,93,2.0,7.0,85,0.00,,,0.02,0,Wunderground v.1.15,2013-03-12 05:35:00,
2013-03-11 23:45:00,23.2,19.4,30.08,East,89,1.0,7.0,85,0.00,,,0.02,0,Wunderground v.1.15,2013-03-12 05:45:00,
2013-03-11 23:50:00,23.2,19.4,30.10,East,89,1.0,1.0,85,0.00,,,0.02,0,Wunderground v.1.15,2013-03-12 05:50:00,